This is the latest recevied weather packets stored in our database for station/object W2GRK-15. If no packets are shown the sender has not sent any weather packets the latest 10 day(s).
| Time | Temp. | Humidity | Pressure | Rain* | Wind** | Luminosity | Snow |
|---|---|---|---|---|---|---|---|
| 1777829597 | 13.33° C | 37% | 1012.8 hPa | 0 mm | - | 854 W/m² | - |
| 1777829178 | 12.78° C | 39% | 1012.8 hPa | 0 mm | - | 878 W/m² | - |
| 1777829130 | 12.78° C | 40% | 1012.8 hPa | 0 mm | - | 865 W/m² | - |
| 1777829041 | 12.22° C | 41% | 1012.7 hPa | 0 mm | - | 872 W/m² | - |
| 1777827745 | 12.22° C | 40% | 1012.7 hPa | 0 mm | - | 263 W/m² | - |
| 1777827391 | 11.67° C | 39% | 1013 hPa | 0 mm | - | 419 W/m² | - |
| 1777827342 | 11.67° C | 39% | 1012.7 hPa | 0 mm | - | 316 W/m² | - |
| 1777826843 | 12.78° C | 39% | 1012.9 hPa | 0 mm | - | 349 W/m² | - |
| 1777826730 | 12.78° C | 41% | 1013.1 hPa | 0 mm | - | 577 W/m² | - |
| 1777826311 | 12.22° C | 43% | 1012.8 hPa | 0 mm | - | 875 W/m² | - |
| 1777825586 | 12.22° C | 40% | 1013.2 hPa | 0 mm | - | 926 W/m² | - |
| 1777825409 | 11.67° C | 41% | 1013.1 hPa | 0 mm | - | 720 W/m² | - |
| 1777825280 | 11.67° C | 41% | 1013.1 hPa | 0 mm | - | 733 W/m² | - |
| 1777825167 | 11.11° C | 42% | 1013.1 hPa | 0 mm | - | 338 W/m² | - |
| 1777825150 | 11.11° C | 41% | 1013.2 hPa | 0 mm | - | 234 W/m² | - |
| 1777824797 | 11.67° C | 41% | 1013.2 hPa | 0 mm | - | 256 W/m² | - |
| 1777824684 | 11.11° C | 41% | 1013 hPa | 0 mm | - | 231 W/m² | - |
| 1777824620 | 11.11° C | 41% | 1013.1 hPa | 0 mm | - | 218 W/m² | - |
| 1777824265 | 11.11° C | 43% | 1013.2 hPa | 0 mm | - | 301 W/m² | - |
| 1777823540 | 11.11° C | 41% | 1013.3 hPa | 0 mm | - | 309 W/m² | - |
| 1777823428 | 11.11° C | 41% | 1013.2 hPa | 0 mm | - | 259 W/m² | - |
| 1777822880 | 11.67° C | 42% | 1013.3 hPa | 0 mm | - | 461 W/m² | - |
| 1777822788 | 11.11° C | 42% | 1013.2 hPa | 0 mm | - | 349 W/m² | - |
| 1777822639 | 10.56° C | 42% | 1013.4 hPa | 0 mm | - | 737 W/m² | - |
| 1777822631 | 10.56° C | 41% | 1013.5 hPa | 0 mm | - | 355 W/m² | - |
* Rain latest hour (hover to see other rain measurements)
** Current wind speed in m/s (hover to see current wind gust speed)